| time (UTC) | temp C | wind direction | speed KPH | gust KPH | rain 1hr cm | rain 24hr cm | rain mn cm | humidity % | barometer mb |
| 20260503031119 | 13 | 180 | 4.8 | 4.8 | 0.00 | 0.00 | 0.00 | 53 | 1009.0 |
| 20260503030615 | 13 | 179 | 3.2 | 3.2 | 0.00 | 0.00 | 0.00 | 54 | 1009.4 |
| 20260503030112 | 13 | 185 | 1.6 | 3.2 | 0.00 | 0.00 | 0.00 | 54 | 1009.4 |
| 20260503025608 | 13 | 175 | 1.6 | 1.6 | 0.00 | 0.00 | 0.00 | 53 | 1009.4 |
| 20260503025107 | 13 | 181 | 1.6 | 1.6 | 0.00 | 0.00 | 0.00 | 53 | 1009.4 |
| 20260503024602 | 14 | 183 | 4.8 | 4.8 | 0.00 | 0.00 | 0.00 | 52 | 1009.7 |
| 20260503024100 | 14 | 179 | 4.8 | 4.8 | 0.00 | 0.00 | 0.00 | 52 | 1009.4 |
| 20260503023556 | 14 | 187 | 4.8 | 4.8 | 0.00 | 0.00 | 0.00 | 51 | 1009.7 |
| 20260503023054 | 14 | 185 | 1.6 | 3.2 | 0.00 | 0.00 | 0.00 | 52 | 1009.7 |
| 20260503022550 | 14 | 188 | 1.6 | 3.2 | 0.00 | 0.00 | 0.00 | 51 | 1009.7 |
| 20260503022044 | 13 | 191 | 3.2 | 3.2 | 0.00 | 0.00 | 0.00 | 53 | 1009.7 |
| 20260503021542 | 13 | 181 | 3.2 | 3.2 | 0.00 | 0.00 | 0.00 | 52 | 1009.7 |
| 20260503021038 | 13 | 182 | 3.2 | 3.2 | 0.00 | 0.00 | 0.00 | 51 | 1009.4 |
| 20260503020536 | 13 | 179 | 1.6 | 1.6 | 0.00 | 0.00 | 0.00 | 54 | 1009.7 |
| 20260503020033 | 13 | 178 | 3.2 | 3.2 | 0.00 | 0.00 | 0.00 | 53 | 1010.0 |
| 20260503015529 | 13 | 182 | 1.6 | 1.6 | 0.00 | 0.00 | 0.00 | 56 | 1009.7 |
| 20260503015027 | 13 | 183 | 1.6 | 1.6 | 0.00 | 0.00 | 0.00 | 55 | 1009.7 |
| 20260503014522 | 13 | 175 | 0.0 | 0.0 | 0.00 | 0.00 | 0.00 | 53 | 1009.4 |
| 20260503014021 | 13 | 183 | 0.0 | 0.0 | 0.00 | 0.00 | 0.00 | 53 | 1009.4 |
| 20260503013518 | 13 | 180 | 0.0 | 0.0 | 0.00 | 0.00 | 0.00 | 52 | 1009.4 |
| 20260503013015 | 13 | 135 | 1.6 | 1.6 | 0.00 | 0.00 | 0.00 | 54 | 1009.7 |
| 20260503012513 | 14 | 179 | 0.0 | 0.0 | 0.00 | 0.00 | 0.00 | 54 | 1009.7 |
| 20260503012009 | 14 | 184 | 4.8 | 4.8 | 0.00 | 0.00 | 0.00 | 49 | 1010.0 |
| 20260503011506 | 14 | 181 | 1.6 | 1.6 | 0.00 | 0.00 | 0.00 | 49 | 1009.7 |
| 20260503011003 | 14 | 184 | 3.2 | 3.2 | 0.00 | 0.00 | 0.00 | 48 | 1009.7 |
| 20260503010459 | 14 | 182 | 1.6 | 1.6 | 0.00 | 0.00 | 0.00 | 50 | 1010.0 |
| 20260503005957 | 14 | 176 | 1.6 | 1.6 | 0.00 | 0.00 | 0.00 | 48 | 1009.7 |
| 20260503005454 | 15 | 176 | 1.6 | 1.6 | 0.00 | 0.00 | 0.00 | 48 | 1009.7 |
| 20260503004950 | 15 | 180 | 1.6 | 3.2 | 0.00 | 0.00 | 0.00 | 48 | 1009.7 |
| 20260503004447 | 15 | 181 | 1.6 | 1.6 | 0.00 | 0.00 | 0.00 | 46 | 1010.0 |
| 20260503003945 | 15 | 184 | 1.6 | 1.6 | 0.00 | 0.00 | 0.00 | 46 | 1010.0 |
| 20260503003441 | 15 | 180 | 1.6 | 1.6 | 0.00 | 0.00 | 0.00 | 45 | 1010.0 |
| 20260503002938 | 15 | 190 | 3.2 | 3.2 | 0.00 | 0.00 | 0.00 | 45 | 1010.0 |
| 20260503002436 | 15 | 198 | 1.6 | 3.2 | 0.00 | 0.00 | 0.00 | 44 | 1010.0 |
| 20260503001932 | 15 | 185 | 1.6 | 3.2 | 0.00 | 0.00 | 0.00 | 44 | 1010.0 |
| 20260503001429 | 15 | 183 | 3.2 | 3.2 | 0.00 | 0.00 | 0.00 | 44 | 1009.7 |
| 20260503000926 | 15 | 191 | 3.2 | 3.2 | 0.00 | 0.00 | 0.00 | 44 | 1010.0 |
| 20260503000423 | 15 | 197 | 1.6 | 3.2 | 0.00 | 0.00 | 0.00 | 45 | 1010.4 |
| 20260502235920 | 15 | 202 | 1.6 | 3.2 | 0.00 | 0.00 | 0.00 | 45 | 1010.4 |
| 20260502235417 | 15 | 198 | 3.2 | 3.2 | 0.00 | 0.00 | 0.00 | 44 | 1010.4 |
| 20260502234915 | 15 | 207 | 3.2 | 3.2 | 0.00 | 0.00 | 0.00 | 42 | 1010.4 |
| 20260502234411 | 15 | 217 | 3.2 | 3.2 | 0.00 | 0.00 | 0.00 | 44 | 1010.4 |
| 20260502233908 | 15 | 204 | 6.4 | 8.0 | 0.00 | 0.00 | 0.00 | 43 | 1010.0 |
| 20260502233403 | 16 | 156 | 1.6 | 3.2 | 0.00 | 0.00 | 0.00 | 46 | 1010.4 |
| 20260502232901 | 16 | 222 | 6.4 | 8.0 | 0.00 | 0.00 | 0.00 | 43 | 1010.4 |
| 20260502232357 | 16 | 196 | 4.8 | 4.8 | 0.00 | 0.00 | 0.00 | 43 | 1010.4 |
| 20260502231854 | 16 | 236 | 4.8 | 4.8 | 0.00 | 0.00 | 0.00 | 43 | 1010.7 |
| 20260502231352 | 16 | 205 | 4.8 | 4.8 | 0.00 | 0.00 | 0.00 | 43 | 1010.4 |
| 20260502230849 | 16 | 206 | 4.8 | 4.8 | 0.00 | 0.00 | 0.00 | 43 | 1010.7 |
| 20260502230347 | 16 | 221 | 8.0 | 9.7 | 0.00 | 0.00 | 0.00 | 42 | 1010.7 |
| 20260502225844 | 16 | 228 | 4.8 | 8.0 | 0.00 | 0.00 | 0.00 | 42 | 1011.1 |
| 20260502225340 | 16 | 228 | 6.4 | 8.0 | 0.00 | 0.00 | 0.00 | 42 | 1011.1 |
| 20260502224837 | 16 | 192 | 1.6 | 1.6 | 0.00 | 0.00 | 0.00 | 43 | 1011.1 |
| 20260502224333 | 16 | 214 | 8.0 | 11.3 | 0.00 | 0.00 | 0.00 | 41 | 1011.5 |
| 20260502223831 | 16 | 223 | 8.0 | 9.7 | 0.00 | 0.00 | 0.00 | 42 | 1011.1 |
| 20260502223329 | 16 | 219 | 6.4 | 9.7 | 0.00 | 0.00 | 0.00 | 41 | 1011.5 |
| 20260502222826 | 16 | 178 | 8.0 | 9.7 | 0.00 | 0.00 | 0.00 | 42 | 1011.1 |
| 20260502222324 | 16 | 169 | 3.2 | 4.8 | 0.00 | 0.00 | 0.00 | 43 | 1011.1 |
| 20260502221819 | 16 | 212 | 9.7 | 11.3 | 0.00 | 0.00 | 0.00 | 42 | 1011.5 |
| 20260502221315 | 16 | 198 | 1.6 | 1.6 | 0.00 | 0.00 | 0.00 | 45 | 1011.1 |
| 20260502220813 | 16 | 213 | 3.2 | 3.2 | 0.00 | 0.00 | 0.00 | 44 | 1011.1 |
| 20260502220309 | 16 | 211 | 4.8 | 4.8 | 0.00 | 0.00 | 0.00 | 41 | 1011.5 |
| 20260502215806 | 16 | 210 | 4.8 | 4.8 | 0.00 | 0.00 | 0.00 | 42 | 1011.5 |
| 20260502215305 | 16 | 193 | 0.0 | 1.6 | 0.00 | 0.00 | 0.00 | 42 | 1011.5 |
| 20260502214800 | 15 | 223 | 1.6 | 1.6 | 0.00 | 0.00 | 0.00 | 44 | 1011.8 |
| 20260502214256 | 15 | 274 | 3.2 | 3.2 | 0.00 | 0.00 | 0.00 | 43 | 1011.8 |
| 20260502213754 | 17 | 65 | 1.6 | 1.6 | 0.00 | 0.00 | 0.00 | 42 | 1011.8 |
| 20260502213251 | 16 | 213 | 1.6 | 1.6 | 0.00 | 0.00 | 0.00 | 42 | 1011.5 |
| 20260502212750 | 17 | 129 | 1.6 | 3.2 | 0.00 | 0.00 | 0.00 | 42 | 1011.8 |
| 20260502212248 | 17 | 206 | 6.4 | 8.0 | 0.00 | 0.00 | 0.00 | 41 | 1012.2 |
| 20260502211743 | 16 | 256 | 4.8 | 8.0 | 0.00 | 0.00 | 0.00 | 41 | 1012.2 |
| 20260502211240 | 17 | 202 | 3.2 | 4.8 | 0.00 | 0.00 | 0.00 | 42 | 1012.2 |
| 20260502210737 | 17 | 285 | 4.8 | 4.8 | 0.00 | 0.00 | 0.00 | 40 | 1012.2 |
| 20260502210229 | 17 | 329 | 3.2 | 4.8 | 0.00 | 0.00 | 0.00 | 41 | 1012.5 |
| 20260502205726 | 17 | 213 | 8.0 | 11.3 | 0.00 | 0.00 | 0.00 | 42 | 1012.2 |
| 20260502205222 | 15 | 186 | 1.6 | 1.6 | 0.00 | 0.00 | 0.00 | 43 | 1012.5 |
| 20260502204719 | 17 | 222 | 8.0 | 9.7 | 0.00 | 0.00 | 0.00 | 40 | 1012.5 |
| 20260502204217 | 17 | 168 | 4.8 | 4.8 | 0.00 | 0.00 | 0.00 | 42 | 1012.5 |
| 20260502203714 | 17 | 195 | 3.2 | 4.8 | 0.00 | 0.00 | 0.00 | 40 | 1012.9 |
| 20260502203212 | 16 | 187 | 4.8 | 4.8 | 0.00 | 0.00 | 0.00 | 41 | 1012.5 |
| 20260502202706 | 16 | 14 | 8.0 | 9.7 | 0.00 | 0.00 | 0.00 | 41 | 1012.9 |
| 20260502202205 | 16 | 218 | 4.8 | 8.0 | 0.00 | 0.00 | 0.00 | 40 | 1012.5 |
| 20260502201702 | 16 | 225 | 6.4 | 8.0 | 0.00 | 0.00 | 0.00 | 40 | 1012.9 |
| 20260502201158 | 16 | 182 | 6.4 | 9.7 | 0.00 | 0.00 | 0.00 | 40 | 1012.9 |
| 20260502200654 | 16 | 216 | 8.0 | 9.7 | 0.00 | 0.00 | 0.00 | 39 | 1013.2 |
| 20260502200150 | 16 | 215 | 6.4 | 9.7 | 0.00 | 0.00 | 0.00 | 40 | 1012.9 |
| 20260502195649 | 16 | 230 | 11.3 | 14.5 | 0.00 | 0.00 | 0.00 | 39 | 1013.2 |
| 20260502195145 | 17 | 347 | 4.8 | 4.8 | 0.00 | 0.00 | 0.00 | 39 | 1013.2 |
| 20260502194642 | 16 | 358 | 4.8 | 4.8 | 0.00 | 0.00 | 0.00 | 39 | 1013.5 |
| 20260502194138 | 16 | 146 | 1.6 | 1.6 | 0.00 | 0.00 | 0.00 | 40 | 1013.2 |
| 20260502193635 | 16 | 221 | 3.2 | 4.8 | 0.00 | 0.00 | 0.00 | 38 | 1013.5 |
| 20260502193132 | 16 | 191 | 4.8 | 4.8 | 0.00 | 0.00 | 0.00 | 39 | 1013.9 |
| 20260502192627 | 16 | 228 | 6.4 | 9.7 | 0.00 | 0.00 | 0.00 | 38 | 1013.5 |
| 20260502192125 | 16 | 189 | 1.6 | 3.2 | 0.00 | 0.00 | 0.00 | 40 | 1013.9 |
| 20260502191622 | 16 | 304 | 4.8 | 4.8 | 0.00 | 0.00 | 0.00 | 38 | 1013.9 |
| 20260502191119 | 16 | 166 | 6.4 | 11.3 | 0.00 | 0.00 | 0.00 | 39 | 1013.9 |
| 20260502190617 | 16 | 294 | 4.8 | 8.0 | 0.00 | 0.00 | 0.00 | 38 | 1013.9 |
| 20260502190114 | 15 | 190 | 4.8 | 8.0 | 0.00 | 0.00 | 0.00 | 40 | 1013.9 |
| 20260502185608 | 15 | 266 | 3.2 | 8.0 | 0.00 | 0.00 | 0.00 | 43 | 1014.2 |
| 20260502185106 | 15 | 172 | 6.4 | 8.0 | 0.00 | 0.00 | 0.00 | 38 | 1014.2 |
| 20260502184602 | 15 | 197 | 6.4 | 8.0 | 0.00 | 0.00 | 0.00 | 37 | 1014.2 |
| 20260502184057 | 15 | 248 | 4.8 | 4.8 | 0.00 | 0.00 | 0.00 | 40 | 1014.5 |
| 20260502183554 | 15 | 229 | 4.8 | 4.8 | 0.00 | 0.00 | 0.00 | 39 | 1014.2 |
| 20260502183051 | 15 | 253 | 3.2 | 4.8 | 0.00 | 0.00 | 0.00 | 39 | 1014.5 |
| 20260502182546 | 15 | 198 | 3.2 | 9.7 | 0.00 | 0.00 | 0.00 | 41 | 1014.5 |
| 20260502182042 | 15 | 322 | 9.7 | 11.3 | 0.00 | 0.00 | 0.00 | 41 | 1014.5 |
| 20260502181540 | 15 | 96 | 1.6 | 1.6 | 0.00 | 0.00 | 0.00 | 40 | 1014.5 |
| 20260502181038 | 15 | 227 | 8.0 | 9.7 | 0.00 | 0.00 | 0.00 | 39 | 1015.0 |
| 20260502180535 | 15 | 179 | 1.6 | 3.2 | 0.00 | 0.00 | 0.00 | 39 | 1015.0 |
| 20260502170454 | 13 | 209 | 6.4 | 8.0 | 0.00 | 0.00 | 0.00 | 42 | 1015.7 |
| 20260502163937 | 13 | 210 | 3.2 | 3.2 | 0.00 | 0.00 | 0.00 | 42 | 1015.7 |
| 20260502163433 | 13 | 298 | 4.8 | 4.8 | 0.00 | 0.00 | 0.00 | 42 | 1016.0 |
| 20260502162931 | 13 | 218 | 9.7 | 14.5 | 0.00 | 0.00 | 0.00 | 40 | 1016.0 |
| 20260502162427 | 13 | 215 | 8.0 | 11.3 | 0.00 | 0.00 | 0.00 | 41 | 1016.0 |
| 20260502161925 | 13 | 178 | 3.2 | 8.0 | 0.00 | 0.00 | 0.00 | 44 | 1016.0 |
| 20260502161421 | 13 | 0 | 4.8 | 8.0 | 0.00 | 0.00 | 0.00 | 40 | 1016.0 |
| 20260502160919 | 13 | 148 | 4.8 | 8.0 | 0.00 | 0.00 | 0.00 | 40 | 1016.3 |
| 20260502160417 | 13 | 140 | 4.8 | 4.8 | 0.00 | 0.00 | 0.00 | 42 | 1016.3 |
| 20260502151849 | 13 | 159 | 3.2 | 3.2 | 0.00 | 0.00 | 0.00 | 43 | 1016.7 |
| 20260502151345 | 12 | 177 | 0.0 | 1.6 | 0.00 | 0.00 | 0.00 | 46 | 1016.7 |
| 20260502150843 | 12 | 287 | 4.8 | 4.8 | 0.00 | 0.00 | 0.00 | 45 | 1016.7 |
| 20260502150339 | 12 | 204 | 4.8 | 4.8 | 0.00 | 0.00 | 0.00 | 44 | 1016.7 |
| 20260502130728 | 6 | 162 | 0.0 | 0.0 | 0.00 | 0.00 | 0.00 | 69 | 1017.0 |
| 20260502130225 | 6 | 165 | 0.0 | 0.0 | 0.00 | 0.00 | 0.00 | 68 | 1017.4 |
| 20260502123711 | 1 | 157 | 0.0 | 0.0 | 0.00 | 0.00 | 0.00 | 80 | 1017.4 |
| 20260502123208 | 2 | 157 | 0.0 | 0.0 | 0.00 | 0.00 | 0.00 | 81 | 1017.4 |
| 20260502122704 | 0 | 158 | 0.0 | 0.0 | 0.00 | 0.00 | 0.00 | 85 | 1017.4 |
| 20260502122201 | 0 | 158 | 0.0 | 0.0 | 0.00 | 0.00 | 0.00 | 90 | 1017.4 |
| 20260502121659 | -1 | 158 | 0.0 | 0.0 | 0.00 | 0.00 | 0.00 | 93 | 1017.4 |
| 20260502121157 | -2 | 159 | 0.0 | 0.0 | 0.00 | 0.00 | 0.00 | 93 | 1017.4 |
| 20260502120653 | -3 | 159 | 0.0 | 0.0 | 0.00 | 0.00 | 0.00 | 94 | 1017.4 |
| 20260502120150 | -3 | 159 | 0.0 | 0.0 | 0.00 | 0.00 | 0.00 | 94 | 1017.4 |
| 20260502115648 | -3 | 159 | 0.0 | 0.0 | 0.00 | 0.00 | 0.00 | 94 | 1017.0 |
| 20260502115143 | -3 | 159 | 0.0 | 0.0 | 0.00 | 0.00 | 0.00 | 95 | 1017.0 |
| 20260502114640 | -4 | 158 | 0.0 | 0.0 | 0.00 | 0.00 | 0.00 | 95 | 1017.0 |
| 20260502114138 | -4 | 158 | 0.0 | 0.0 | 0.00 | 0.00 | 0.00 | 95 | 1017.4 |
| 20260502113635 | -4 | 159 | 0.0 | 0.0 | 0.00 | 0.00 | 0.00 | 96 | 1017.4 |
| 20260502113133 | -5 | 159 | 0.0 | 0.0 | 0.00 | 0.00 | 0.00 | 96 | 1017.4 |
| 20260502112630 | -5 | 159 | 0.0 | 0.0 | 0.00 | 0.00 | 0.00 | 96 | 1017.0 |
| 20260502112127 | -5 | 159 | 0.0 | 0.0 | 0.00 | 0.00 | 0.00 | 95 | 1017.0 |
| 20260502111625 | -5 | 159 | 0.0 | 0.0 | 0.00 | 0.00 | 0.00 | 95 | 1017.0 |
| 20260502111122 | -5 | 159 | 0.0 | 0.0 | 0.00 | 0.00 | 0.00 | 95 | 1017.0 |
| 20260502110620 | -5 | 158 | 0.0 | 0.0 | 0.00 | 0.00 | 0.00 | 95 | 1017.0 |
| 20260502110117 | -5 | 158 | 0.0 | 0.0 | 0.00 | 0.00 | 0.00 | 95 | 1017.0 |
| 20260502105614 | -5 | 158 | 0.0 | 0.0 | 0.00 | 0.00 | 0.00 | 95 | 1017.0 |
| 20260502105111 | -4 | 158 | 0.0 | 0.0 | 0.00 | 0.00 | 0.00 | 95 | 1017.0 |
| 20260502104609 | -4 | 158 | 0.0 | 0.0 | 0.00 | 0.00 | 0.00 | 94 | 1017.0 |
| 20260502104106 | -4 | 158 | 0.0 | 0.0 | 0.00 | 0.00 | 0.00 | 94 | 1017.0 |
| 20260502103603 | -4 | 158 | 0.0 | 0.0 | 0.00 | 0.00 | 0.00 | 94 | 1017.0 |
| 20260502103102 | -4 | 158 | 0.0 | 0.0 | 0.00 | 0.00 | 0.00 | 94 | 1017.0 |
| 20260502102557 | -4 | 158 | 0.0 | 0.0 | 0.00 | 0.00 | 0.00 | 94 | 1017.4 |
| 20260502102055 | -4 | 159 | 0.0 | 0.0 | 0.00 | 0.00 | 0.00 | 93 | 1017.4 |
| 20260502101553 | -4 | 158 | 0.0 | 0.0 | 0.00 | 0.00 | 0.00 | 93 | 1017.4 |
| 20260502101051 | -4 | 158 | 0.0 | 0.0 | 0.00 | 0.00 | 0.00 | 93 | 1017.4 |
| 20260502100549 | -4 | 158 | 0.0 | 0.0 | 0.00 | 0.00 | 0.00 | 93 | 1017.0 |
| 20260502091524 | -3 | 163 | 0.0 | 0.0 | 0.00 | 0.00 | 0.00 | 94 | 1017.4 |
| 20260502091021 | -3 | 164 | 0.0 | 0.0 | 0.00 | 0.00 | 0.00 | 94 | 1017.4 |
| 20260502090517 | -3 | 164 | 0.0 | 0.0 | 0.00 | 0.00 | 0.00 | 93 | 1017.0 |
| 20260502071412 | -2 | 155 | 0.0 | 0.0 | 0.00 | 0.00 | 0.00 | 86 | 1017.7 |
| 20260502070910 | -2 | 158 | 0.0 | 0.0 | 0.00 | 0.00 | 0.00 | 86 | 1017.4 |
| 20260502070408 | -2 | 159 | 0.0 | 0.0 | 0.00 | 0.00 | 0.00 | 85 | 1017.7 |
| 20260502065906 | -2 | 150 | 0.0 | 0.0 | 0.00 | 0.00 | 0.00 | 85 | 1017.7 |
| 20260502065405 | -2 | 146 | 0.0 | 1.6 | 0.00 | 0.00 | 0.00 | 85 | 1017.7 |
| 20260502064902 | -2 | 136 | 1.6 | 1.6 | 0.00 | 0.00 | 0.00 | 85 | 1017.7 |
| 20260502064400 | -2 | 143 | 1.6 | 1.6 | 0.00 | 0.00 | 0.00 | 84 | 1017.7 |
| 20260502063856 | -2 | 146 | 0.0 | 0.0 | 0.00 | 0.00 | 0.00 | 84 | 1017.7 |
| 20260502063354 | -2 | 146 | 1.6 | 1.6 | 0.00 | 0.00 | 0.00 | 84 | 1018.0 |
| 20260502062851 | -2 | 139 | 1.6 | 1.6 | 0.00 | 0.00 | 0.00 | 84 | 1017.7 |
| 20260502062349 | -2 | 137 | 1.6 | 1.6 | 0.00 | 0.00 | 0.00 | 84 | 1018.0 |
| 20260502061848 | -2 | 143 | 0.0 | 1.6 | 0.00 | 0.00 | 0.00 | 83 | 1018.0 |
| 20260502061345 | -2 | 153 | 1.6 | 1.6 | 0.00 | 0.00 | 0.00 | 83 | 1018.0 |
| 20260502060841 | -2 | 152 | 1.6 | 1.6 | 0.00 | 0.00 | 0.00 | 83 | 1018.0 |
| 20260502060336 | -2 | 153 | 0.0 | 1.6 | 0.00 | 0.00 | 0.00 | 83 | 1018.0 |
| 20260502055834 | -2 | 154 | 1.6 | 1.6 | 0.00 | 0.00 | 0.00 | 83 | 1018.0 |
| 20260502055332 | -1 | 156 | 0.0 | 0.0 | 0.00 | 0.00 | 0.00 | 82 | 1017.7 |
| 20260502054831 | -1 | 146 | 0.0 | 1.6 | 0.00 | 0.00 | 0.00 | 82 | 1018.0 |
| 20260502054328 | -1 | 135 | 1.6 | 1.6 | 0.00 | 0.00 | 0.00 | 81 | 1018.0 |
| 20260502053826 | -1 | 143 | 1.6 | 1.6 | 0.00 | 0.00 | 0.00 | 79 | 1017.7 |
| 20260502053323 | -1 | 156 | 0.0 | 0.0 | 0.00 | 0.00 | 0.00 | 80 | 1018.0 |
| 20260502052820 | -1 | 156 | 0.0 | 1.6 | 0.00 | 0.00 | 0.00 | 80 | 1018.0 |
| 20260502052318 | -1 | 148 | 0.0 | 0.0 | 0.00 | 0.00 | 0.00 | 80 | 1018.0 |
| 20260502051815 | 0 | 142 | 0.0 | 1.6 | 0.00 | 0.00 | 0.00 | 80 | 1018.0 |
| 20260502051315 | 0 | 153 | 0.0 | 1.6 | 0.00 | 0.00 | 0.00 | 80 | 1018.0 |
| 20260502050810 | 0 | 155 | 1.6 | 1.6 | 0.00 | 0.00 | 0.00 | 80 | 1017.7 |
| 20260502050307 | 0 | 132 | 1.6 | 1.6 | 0.00 | 0.00 | 0.00 | 79 | 1017.7 |
| 20260502045804 | 0 | 150 | 0.0 | 1.6 | 0.00 | 0.00 | 0.00 | 79 | 1017.7 |
| 20260502045300 | 0 | 150 | 0.0 | 0.0 | 0.00 | 0.00 | 0.00 | 79 | 1017.7 |
| 20260502044758 | 0 | 143 | 1.6 | 1.6 | 0.00 | 0.00 | 0.00 | 79 | 1017.7 |
| 20260502044253 | 0 | 141 | 1.6 | 1.6 | 0.00 | 0.00 | 0.00 | 78 | 1017.7 |
| 20260502043751 | 0 | 142 | 1.6 | 1.6 | 0.00 | 0.00 | 0.00 | 78 | 1017.7 |
| 20260502043248 | 0 | 148 | 0.0 | 0.0 | 0.00 | 0.00 | 0.00 | 77 | 1017.7 |
| 20260502042748 | 0 | 137 | 1.6 | 1.6 | 0.00 | 0.00 | 0.00 | 76 | 1017.7 |
| 20260502042245 | 0 | 130 | 1.6 | 1.6 | 0.00 | 0.00 | 0.00 | 75 | 1017.7 |
| 20260502041743 | 0 | 153 | 0.0 | 0.0 | 0.00 | 0.00 | 0.00 | 75 | 1017.7 |
| 20260502041240 | 0 | 143 | 1.6 | 1.6 | 0.00 | 0.00 | 0.00 | 74 | 1017.7 |
| 20260502040737 | 0 | 135 | 1.6 | 1.6 | 0.00 | 0.00 | 0.00 | 73 | 1017.7 |
| 20260502040234 | 0 | 133 | 1.6 | 1.6 | 0.00 | 0.00 | 0.00 | 73 | 1017.4 |
| 20260502035729 | 1 | 151 | 0.0 | 1.6 | 0.00 | 0.00 | 0.00 | 73 | 1017.7 |
| 20260502035227 | 1 | 146 | 1.6 | 1.6 | 0.00 | 0.00 | 0.00 | 73 | 1018.0 |
| 20260502034724 | 1 | 156 | 0.0 | 0.0 | 0.00 | 0.00 | 0.00 | 74 | 1017.7 |
| 20260502034222 | 1 | 157 | 0.0 | 0.0 | 0.00 | 0.00 | 0.00 | 73 | 1017.7 |
| 20260502033720 | 1 | 157 | 0.0 | 0.0 | 0.00 | 0.00 | 0.00 | 73 | 1017.7 |
| 20260502033218 | 1 | 157 | 0.0 | 0.0 | 0.00 | 0.00 | 0.00 | 70 | 1017.7 |
| 20260502032714 | 1 | 156 | 0.0 | 0.0 | 0.00 | 0.00 | 0.00 | 70 | 1018.0 |
| 20260502032210 | 1 | 156 | 0.0 | 0.0 | 0.00 | 0.00 | 0.00 | 70 | 1017.7 |
| 20260502031708 | 2 | 156 | 0.0 | 0.0 | 0.00 | 0.00 | 0.00 | 69 | 1017.7 |
| 20260502031206 | 2 | 157 | 0.0 | 0.0 | 0.00 | 0.00 | 0.00 | 70 | 1017.7 |